Weather History for KLCG - March, 2013

Change the Weather History Date:

Saturday, March 16, 2013

  Actual Average (KOFK) Record (KOFK)
Temperature  
Mean Temperature 26 °F 37 °F  
Max Temperature 32 °F 49 °F 92 °F (2015)
Min Temperature 21 °F 26 °F -10 °F (1900)
Degree Days  
Heating Degree Days 38 28  
Month to date heating degree days 490  
Since 1 July heating degree days 5583  
Cooling Degree Days 0 0  
Month to date cooling degree days 0  
Year to date cooling degree days 0  
Moisture  
Dew Point 23 °F    
Average Humidity 80    
Maximum Humidity 100    
Minimum Humidity 64    
Precipitation  
Precipitation 0.00 in 0.07 in 0.75 in (1987)
Month to date precipitation 0.75  
Year to date precipitation 2.10  
Snow  
Snow 0.00 in 0.20 in - ()
Month to date snowfall 2.8  
Since 1 July snowfall 25.6  
Snow Depth -    
Sea Level Pressure  
Sea Level Pressure 30.09 in    
Wind  
Wind Speed 15 mph (North)    
Max Wind Speed 23 mph    
Max Gust Speed 31 mph    
Visibility 9 miles    
Events Snow    
T = Trace of Precipitation, MM = Missing Value Source: NWS Daily Summary

Daily Weather History Graph

Daily Weather History Graph

Search for Another Location

Airport or City:

Trip Planner

Search our weather history database for the weather conditions in past years. The results will help you decide how hot, cold, wet, or windy it might be!

Date:

Astronomy

Mar. 16, 2013 Rise Set
Actual Time 7:37 AM CDT 7:35 PM CDT
Civil Twilight 7:09 AM CDT 8:03 PM CDT
Nautical Twilight 6:37 AM CDT 8:36 PM CDT
Astronomical Twilight 6:04 AM CDT 9:09 PM CDT
Moon 10:02 AM CDT (3/16) No Moon Set
Length of Visible Light 12h 54m
Length of Day
11h 58m
Waxing Crescent, 23% of the Moon is Illuminated
Mar 16
Waxing Crescent
Mar 19
First Quarter
Mar 27
Full
Apr 2
Last Quarter
Apr 10
New

Hourly Weather History & Observations

Time (CDT) Temp. Windchill Dew Point Humidity Pressure Visibility Wind Dir Wind Speed Gust Speed Precip Events Conditions
12:15 AM 32.0 °F 22.5 °F 32.0 °F 100% 29.91 in 3.0 mi NNW 12.7 mph 18.4 mph N/A   Overcast
12:35 AM 32.0 °F 19.5 °F 31.6 °F 99% 29.91 in 2.5 mi North 21.9 mph 25.3 mph N/A   Overcast
12:55 AM 31.6 °F 19.7 °F 31.1 °F 98% 29.93 in 4.0 mi NNW 19.6 mph 27.6 mph N/A   Overcast
1:15 AM 31.5 °F 20.1 °F 30.9 °F 98% 29.94 in 4.0 mi NNW 17.3 mph 23.0 mph N/A   Overcast
1:35 AM 32.0 °F 20.1 °F 30.7 °F 95% 29.94 in 7.0 mi NNW 19.6 mph 25.3 mph N/A   Overcast
1:55 AM 31.1 °F 18.9 °F 29.8 °F 95% 29.95 in 7.0 mi NNW 19.6 mph 27.6 mph N/A   Overcast
2:15 AM 31.1 °F 19.7 °F 29.3 °F 93% 29.96 in 10.0 mi NNW 17.3 mph 29.9 mph N/A   Overcast
2:35 AM 30.9 °F 19.4 °F 28.8 °F 92% 29.95 in 10.0 mi NNW 17.3 mph 24.2 mph N/A   Overcast
2:55 AM 30.9 °F 19.8 °F 28.4 °F 90% 29.96 in 10.0 mi NNW 16.1 mph 21.9 mph N/A   Overcast
3:15 AM 30.7 °F 19.2 °F 27.5 °F 88% 30.00 in 10.0 mi NNW 17.3 mph 25.3 mph N/A   Overcast
3:35 AM 30.0 °F 18.7 °F 27.1 °F 89% 30.00 in 10.0 mi NNW 16.1 mph 25.3 mph N/A   Overcast
3:55 AM 29.1 °F 16.4 °F 25.7 °F 87% 30.00 in 10.0 mi NNW 19.6 mph 29.9 mph N/A   Overcast
4:15 AM 28.4 °F 15.1 °F 25.3 °F 88% 30.02 in 10.0 mi NNW 20.7 mph 26.5 mph N/A   Overcast
4:35 AM 27.3 °F 14.4 °F 24.1 °F 88% 30.03 in 10.0 mi NNW 18.4 mph 26.5 mph N/A   Overcast
4:55 AM 26.4 °F 12.5 °F 23.5 °F 89% 30.04 in 10.0 mi NNW 20.7 mph 24.2 mph N/A   Overcast
5:15 AM 26.1 °F 11.3 °F 23.5 °F 90% 30.03 in 10.0 mi North 23.0 mph 29.9 mph N/A   Overcast
5:35 AM 25.2 °F 10.4 °F 22.3 °F 89% 30.05 in 10.0 mi North 21.9 mph 31.1 mph N/A   Overcast
5:55 AM 24.4 °F 10.2 °F 21.4 °F 88% 30.07 in 10.0 mi North 19.6 mph 25.3 mph N/A   Overcast
6:15 AM 23.9 °F 10.8 °F 21.4 °F 90% 30.08 in 10.0 mi North 16.1 mph 26.5 mph N/A   Overcast
6:35 AM 23.7 °F 8.9 °F 21.0 °F 89% 30.08 in 10.0 mi North 20.7 mph 27.6 mph N/A   Overcast
6:55 AM 23.4 °F 9.2 °F 20.7 °F 89% 30.10 in 10.0 mi NNW 18.4 mph 28.8 mph N/A   Overcast
7:15 AM 23.0 °F 8.3 °F 20.1 °F 89% 30.09 in 10.0 mi North 19.6 mph 26.5 mph N/A   Overcast
7:35 AM 22.5 °F 7.6 °F 19.9 °F 90% 30.10 in 10.0 mi North 19.6 mph 27.6 mph N/A   Overcast
7:55 AM 21.9 °F 7.3 °F 19.4 °F 90% 30.12 in 10.0 mi North 18.4 mph 26.5 mph N/A   Overcast
8:15 AM 21.6 °F 9.9 °F 19.2 °F 91% 30.13 in 10.0 mi North 11.5 mph 21.9 mph N/A   Overcast
8:35 AM 21.9 °F 8.2 °F 19.4 °F 90% 30.13 in 10.0 mi North 16.1 mph 23.0 mph N/A   Overcast
8:55 AM 22.1 °F 8.9 °F 19.6 °F 90% 30.13 in 10.0 mi North 15.0 mph 23.0 mph N/A   Overcast
9:15 AM 22.1 °F 10.0 °F 19.4 °F 89% 30.14 in 10.0 mi North 12.7 mph 25.3 mph N/A   Overcast
9:35 AM 22.5 °F 9.4 °F 19.4 °F 88% 30.14 in 10.0 mi North 15.0 mph 24.2 mph N/A   Overcast
9:55 AM 22.8 °F 9.9 °F 19.6 °F 87% 30.14 in 10.0 mi North 15.0 mph 20.7 mph N/A   Overcast
10:15 AM 23.4 °F 11.1 °F 19.8 °F 86% 30.13 in 10.0 mi North 13.8 mph 19.6 mph N/A   Overcast
10:35 AM 23.7 °F 11.0 °F 19.6 °F 84% 30.13 in 10.0 mi North 15.0 mph - N/A   Overcast
10:55 AM 24.3 °F 13.3 °F 19.9 °F 84% 30.13 in 10.0 mi North 11.5 mph 18.4 mph N/A   Overcast
11:15 AM 24.8 °F 12.9 °F 19.9 °F 82% 30.14 in 10.0 mi North 13.8 mph 21.9 mph N/A   Overcast
11:35 AM 25.0 °F 13.1 °F 19.9 °F 81% 30.15 in 10.0 mi North 13.8 mph 18.4 mph N/A   Overcast
11:55 AM 26.2 °F 15.2 °F 20.5 °F 79% 30.16 in 10.0 mi NNE 12.7 mph - N/A   Overcast
12:15 PM 25.7 °F 13.5 °F 19.4 °F 77% 30.14 in 10.0 mi North 15.0 mph - N/A   Overcast
12:35 PM 27.1 °F 15.9 °F 20.3 °F 75% 30.15 in 10.0 mi North 13.8 mph 23.0 mph N/A   Overcast
12:55 PM 27.1 °F 16.9 °F 20.1 °F 75% 30.15 in 10.0 mi North 11.5 mph 19.6 mph N/A   Overcast
1:15 PM 27.7 °F 17.6 °F 20.5 °F 74% 30.15 in 10.0 mi North 11.5 mph 17.3 mph N/A   Overcast
1:55 PM 29.3 °F 20.2 °F 20.8 °F 71% 30.15 in 10.0 mi North 10.4 mph 18.4 mph N/A   Mostly Cloudy
2:15 PM 29.8 °F 21.5 °F 21.0 °F 70% 30.13 in 10.0 mi North 9.2 mph - N/A   Mostly Cloudy
2:35 PM 31.3 °F 22.7 °F 21.9 °F 68% 30.12 in 10.0 mi NNE 10.4 mph - N/A   Mostly Cloudy
2:55 PM 32.0 °F 23.6 °F 21.4 °F 65% 30.11 in 10.0 mi North 10.4 mph - N/A   Mostly Cloudy
3:15 PM 32.0 °F 23.6 °F 21.7 °F 66% 30.10 in 10.0 mi North 10.4 mph - N/A   Scattered Clouds
3:35 PM 32.0 °F 23.0 °F 21.6 °F 65% 30.10 in 10.0 mi NNE 11.5 mph 16.1 mph N/A   Scattered Clouds
3:55 PM 32.0 °F 24.8 °F 21.9 °F 66% 30.10 in 10.0 mi North 8.1 mph - N/A   Clear
4:15 PM 32.0 °F 25.6 °F 21.9 °F 66% 30.09 in 10.0 mi NNE 6.9 mph - N/A   Scattered Clouds
4:35 PM 32.7 °F 25.0 °F 22.3 °F 65% 30.10 in 10.0 mi NNE 9.2 mph - N/A   Scattered Clouds
4:55 PM 32.9 °F 25.3 °F 21.9 °F 64% 30.10 in 10.0 mi North 9.2 mph - N/A   Clear
5:15 PM 32.9 °F 25.3 °F 22.5 °F 65% 30.10 in 10.0 mi North 9.2 mph - N/A   Scattered Clouds
5:35 PM 32.4 °F 24.0 °F 22.1 °F 66% 30.10 in 10.0 mi NNE 10.4 mph - N/A   Scattered Clouds
5:55 PM 32.2 °F 24.4 °F 22.1 °F 66% 30.09 in 10.0 mi NNE 9.2 mph - N/A   Mostly Cloudy
6:15 PM 32.0 °F 23.6 °F 22.1 °F 67% 30.08 in 10.0 mi NNE 10.4 mph - N/A   Overcast
6:35 PM 32.0 °F 23.6 °F 22.6 °F 68% 30.09 in 10.0 mi NE 10.4 mph - N/A   Mostly Cloudy
6:55 PM 31.8 °F 27.3 °F 22.1 °F 67% 30.12 in 10.0 mi NNE 4.6 mph - N/A   Overcast
7:15 PM 31.8 °F 26.2 °F 22.5 °F 68% 30.13 in 10.0 mi NNE 5.8 mph - N/A   Overcast
7:35 PM 31.6 °F 27.0 °F 22.8 °F 70% 30.14 in 10.0 mi North 4.6 mph - N/A   Overcast
7:55 PM 31.6 °F 26.0 °F 22.6 °F 69% 30.14 in 10.0 mi North 5.8 mph - N/A   Overcast
8:15 PM 31.6 °F 27.0 °F 22.8 °F 70% 30.15 in 10.0 mi NNE 4.6 mph - N/A   Overcast
8:35 PM 31.5 °F 25.8 °F 23.2 °F 71% 30.16 in 10.0 mi North 5.8 mph - N/A   Overcast
8:55 PM 31.6 °F 26.0 °F 23.0 °F 70% 30.16 in 10.0 mi NNE 5.8 mph - N/A   Overcast
9:15 PM 31.5 °F 25.8 °F 23.5 °F 73% 30.16 in 10.0 mi NNE 5.8 mph - N/A   Overcast
9:35 PM 31.5 °F 24.9 °F 23.4 °F 72% 30.16 in 10.0 mi NE 6.9 mph - N/A   Overcast
9:55 PM 31.1 °F 25.4 °F 23.0 °F 72% 30.17 in 10.0 mi NE 5.8 mph - N/A   Overcast
10:15 PM 31.1 °F 25.4 °F 23.9 °F 75% 30.17 in 10.0 mi ENE 5.8 mph - N/A   Overcast
10:35 PM 30.4 °F 22.9 °F 23.7 °F 76% 30.18 in 10.0 mi ENE 8.1 mph - N/A   Overcast
10:55 PM 30.0 °F 21.7 °F 24.6 °F 80% 30.17 in 7.0 mi ENE 9.2 mph - N/A Snow Light Snow
11:15 PM 29.3 °F 21.5 °F 25.2 °F 85% 30.17 in 4.0 mi ENE 8.1 mph - N/A Snow Light Snow
11:35 PM 28.8 °F 20.9 °F 25.0 °F 86% 30.17 in 4.0 mi ENE 8.1 mph - N/A Snow Light Snow
11:55 PM 28.8 °F 19.5 °F 24.3 °F 83% 30.16 in 7.0 mi ENE 10.4 mph - N/A Snow Light Snow